"Pseudo-MPEC" for ZTF0JSX

Created 2021 Jan 21 12:07:23 UT using Find_Orb

Click here for an explanation of pseudo-MPECs

 
 Astrometry: 
     ZTF0JSX  C2021 01 12.08238022 57 59.14 -12 31 22.5    ~1D6q 19.19rUNEOCPI41
     ZTF0JSX  C2021 01 12.08719022 57 58.95 -12 31 26.1    ~1D6q 19.02rUNEOCPI41
     ZTF0JSX  C2021 01 12.08958022 57 58.94 -12 31 28.2    ~1D6q 19.19rUNEOCPI41
     ZTF0JSX  C2021 01 12.09199022 57 58.84 -12 31 29.8    ~1D6q 18.85rUNEOCPI41

Station data:
(I41) Palomar Mountain--ZTF  (N33.357340 W116.859780)  US/California. 1.2-m
   f/2.44 Oschin Schmidt + CCD.

Orbital elements:  ZTF0JSX
   Perihelion 2021 Mar 30.427244 +/- 18.4824 TT = 10:15:13 (JD 2459303.927244)
Epoch 2021 Jan 12.0 TT = JDT 2459226.5   Earth MOID: 0.0132   AutoNEOCP
M 278.26283189 +/- 35.381284        (J2000 ecliptic)
n   1.05566418 +/- 0.930993         Peri.  288.04839 +/- 40.658478
a   0.95525398 +/- 0.561617         Node   266.64039 +/- 30.982144
e   0.0307098 +/- 0.212511          Incl.    0.73515 +/- 63.656296
P   0.93/341.01d           H 20.4   G  0.15   U 12.7  SR
q 0.92591823 +/- 0.377678    Q 0.98458973 +/- 11.4952
From 4 observations 2021 Jan. 12 (13.8 min); mean residual 0".24
Residuals in arcseconds: 
210112 I41  .15+  .01-    210112 I41  .40+  .17-    
210112 I41  .49-  .10+    210112 I41  .05-  .08+    

Ephemerides (geocentric):
Date (UTC) HH   RA              Dec         delta   r     elong  mag " sig PA
---- -- -- --  -------------   -----------  ------ ------ -----  --- ---- ---
2021 01 21 12  22 56 06.726   -15 16 09.26  .04831 .94688  38.7 20?? 3194 135
2021 01 21 13  22 56 04.816   -15 16 59.98  .04831 .94686  38.7 20?? 3223 135
2021 01 21 14  22 56 02.893   -15 17 50.75  .04830 .94684  38.6 20?? 3252 135
2021 01 21 15  22 56 00.957   -15 18 41.57  .04830 .94682  38.6 20?? 3282 135
2021 01 21 16  22 55 59.008   -15 19 32.44  .04829 .94680  38.5 20?? 3312 134
2021 01 21 17  22 55 57.046   -15 20 23.36  .04829 .94677  38.4 20?? 3343 134
2021 01 21 18  22 55 55.071   -15 21 14.33  .04828 .94675  38.4 20?? 3373 134
2021 01 21 19  22 55 53.084   -15 22 05.35  .04828 .94673  38.3 20?? 3404 134
2021 01 21 20  22 55 51.083   -15 22 56.42  .04828 .94671  38.3 20?? 3435 134
2021 01 21 21  22 55 49.069   -15 23 47.54  .04827 .94669  38.2 20?? 3467 134
2021 01 21 22  22 55 47.043   -15 24 38.71  .04827 .94667  38.2 20?? 3499 134
2021 01 21 23  22 55 45.004   -15 25 29.92  .04826 .94664  38.1 20?? 3531 134
2021 01 22 00  22 55 42.951   -15 26 21.19  .04826 .94662  38.1 20?? 3564 134
2021 01 22 01  22 55 40.886   -15 27 12.50  .04826 .94660  38.0 20?? 3596 134
2021 01 22 02  22 55 38.807   -15 28 03.87  .04825 .94658  38.0 20?? 3629 134
2021 01 22 03  22 55 36.716   -15 28 55.28  .04825 .94656  37.9 20?? 3663 134
2021 01 22 04  22 55 34.612   -15 29 46.73  .04824 .94654  37.9 20?? 3697 134
2021 01 22 05  22 55 32.495   -15 30 38.24  .04824 .94652  37.8 20?? 3731 134
2021 01 22 06  22 55 30.365   -15 31 29.80  .04824 .94649  37.8 20?? 3765 134
2021 01 22 07  22 55 28.222   -15 32 21.40  .04823 .94647  37.7 20?? 3800 134
2021 01 22 08  22 55 26.066   -15 33 13.05  .04823 .94645  37.7 20?? 3835 134
2021 01 22 09  22 55 23.896   -15 34 04.75  .04822 .94643  37.6 20?? 3871 134
2021 01 22 10  22 55 21.714   -15 34 56.49  .04822 .94641  37.6 20?? 3907 134
2021 01 22 11  22 55 19.519   -15 35 48.28  .04822 .94639  37.5 20?? 3943 134
2021 01 22 12  22 55 17.311   -15 36 40.12  .04821 .94636  37.4 20?? 3980 133
2021 01 22 13  22 55 15.091   -15 37 32.01  .04821 .94634  37.4 20?? 4017 133
2021 01 22 14  22 55 12.857   -15 38 23.94  .04821 .94632  37.3 20?? 4055 133
2021 01 22 15  22 55 10.610   -15 39 15.92  .04820 .94630  37.3 20?? 4093 133
2021 01 22 16  22 55 08.350   -15 40 07.94  .04820 .94628  37.2 20?? 4131 133
2021 01 22 17  22 55 06.077   -15 41 00.01  .04819 .94626  37.2 20?? 4170 133
2021 01 22 18  22 55 03.791   -15 41 52.13  .04819 .94624  37.1 20?? 4209 133
2021 01 22 19  22 55 01.492   -15 42 44.29  .04819 .94621  37.1 20?? 4249 133
2021 01 22 20  22 54 59.180   -15 43 36.50  .04818 .94619  37.0 20?? 4289 133
2021 01 22 21  22 54 56.855   -15 44 28.75  .04818 .94617  37.0 20?? 4329 133
2021 01 22 22  22 54 54.518   -15 45 21.05  .04818 .94615  36.9 20?? 4370 133
2021 01 22 23  22 54 52.167   -15 46 13.39  .04817 .94613  36.9 20?? 4412 133
2021 01 23 00  22 54 49.803   -15 47 05.78  .04817 .94611  36.8 20?? 4454 133
2021 01 23 01  22 54 47.426   -15 47 58.21  .04817 .94609  36.8 20?? 4497 133
2021 01 23 02  22 54 45.036   -15 48 50.68  .04816 .94606  36.7 20?? 4540 133
2021 01 23 03  22 54 42.633   -15 49 43.20  .04816 .94604  36.7 20?? 4583 133
2021 01 23 04  22 54 40.218   -15 50 35.77  .04816 .94602  36.6 20?? 4627 132
2021 01 23 05  22 54 37.789   -15 51 28.38  .04815 .94600  36.5 20?? 4672 132
2021 01 23 06  22 54 35.347   -15 52 21.03  .04815 .94598  36.5 20?? 4717 132
2021 01 23 07  22 54 32.892   -15 53 13.72  .04815 .94596  36.4 20?? 4763 132
2021 01 23 08  22 54 30.424   -15 54 06.46  .04814 .94594  36.4 20?? 4809 132
2021 01 23 09  22 54 27.943   -15 54 59.24  .04814 .94591  36.3 20?? 4856 132
2021 01 23 10  22 54 25.450   -15 55 52.07  .04814 .94589  36.3 20?? 4904 132
2021 01 23 11  22 54 22.943   -15 56 44.93  .04813 .94587  36.2 20?? 4952 132